Location: Ansan
(43.6898°N, 0.7731°E)
Time: 07:24:04
(UTC+00:00)

Cosmos 2221 - Pass Details

Date: 15 May 2026
Orbit: 569 x 586 km, 82.5° (Epoch: 6 June)

Event Time Altitude Azimuth Distance (km) Brightness Sun altitude
Exits shadow 23:39:37 38° 308° (NW) 891 3.6 -27.2°
Drops below altitude 10° 23:42:56 10° 354° (N) 1,903 6.1 -27.2°
Sets 23:45:15 0° 2° (N) 2,810 7.2 -27.2°
